User: anonymous   Login
Location: Unspecified
(0.0000°N, 0.0000°E)
Time: 01:54:32
(UTC+00:00)
Language:

Tiros 3 - Orbit

View from above orbital plane
View from above orbital plane
View from above satellite
View from above satellite

Ground track
Ground track

The orbit data is extracted from the following two-line orbital elements,

1   162U 61017A   19021.55240233 -.00000138 +00000-0 +75224-5 0  9999
2   162 047.9004 047.6769 0044161 086.0834 274.5106 14.44021158000936
Epoch (UTC): 21 January 2019 13:15:27
Eccentricity: 0.0044161
inclination: 47.9004°
perigee height: 714 km
apogee height: 777 km
right ascension of ascending node: 47.6769°
argument of perigee: 86.0834°
revolutions per day: 14.44021158
mean anomaly at epoch: 274.5106°
orbit number at epoch: 93

The dashed part of the orbit path shows where the satellite is in the earth's shadow,  

DLR